STARLINK-11418 [DTC] (63058 NORAD) Tracking and Keplerian Element Data

This shows tracking and keplerian element data for the satellite.

Feedback or suggestion? Click here.




ElementValue
Catalog63058
NameSTARLINK-11418 [DTC]
Epoch Orbit4851
Epoch Day353.68341431
Epoch Year2025
RAAN137.98
Inclination42.999
Eccentricity0.0002779
Argument of Perigee300.2685
Mean Anonmoly59.7907
Mean Motion15.70881788
Decay Rate0.00200612
L11 63058U 25035G 25353.68341431 .00200612 00000+0 15267-2 0 9998
L22 63058 42.9990 137.9800 0002779 300.2685 59.7907 15.70881788 48512



Live tracking and technical data element details for STARLINK-11418 [DTC] (NORAD 63058). STARLINK-11418 [DTC] can be tracked NOW for your location showing map with azimuth and elevation plus other details from your city location.







IsCatalogInMostPopularTable: catalog: 63058, numindb: 2
Update: records affected: 1



GetName: 63058 STARLINK-11418 [DTC]

Hit Count: updated at: Tue, 10 Feb 2026 02:29:30 GMT